OBJECT A, 61238

Orbit data source: Space-Track

You're viewing an Uncataloged Satellite

Recently launched and/or uncataloged satellites may have evolving metadata. Metadata may include but not limited to: Owner, Maufacturer, Bus, Motor, and Mission.

OBJECT A, 61238 is a Chinese satellite in SSO that was launched on Tue, 24 Sep 2024 UTC via a LIJIAN-1 launch vehicle from the Jiuquan Satellite Launch Center, China (JSC). Unknown objects in Earth's orbit typically refer to objects detected orbiting the Earth but have not yet been identified or cataloged. These objects could be anything from previously untracked satellites, spent rocket stages, debris from satellite collisions, or even natural meteoroids temporarily captured by Earth's gravity.

Loading next visibility...
Identifier
61238, 2024-174A
Orbit
SSO
Last TLE update
9 hours ago
Origin
Flag of CNZHWK/JIG (CN / PRC)
Manufacturer
ZHWK/HITSAT
Mission
Operational Commercial Radar Imaging
Bus & Motor
ZK1, Unknown motor
Mass
~250 kg wet, ~250 kg dry
Launch date (UTC)
2024-09-24 (9 months ago)
Launch vehicle
LIJIAN-1
Launch site
Jiuquan Satellite Launch Center, China (JSC)
Object type
Unknown
Shape & HBR
Box + 3 Pan, 6 m
Radar Cross Section
3.533 m², Large (>1 m²)

Expand to show TLE details & history

TLE from 9 hours ago
0 OBJECT A
1 61238U 24174A   25182.06399167  .00003452  00000-0  16728-3 0  9998
2 61238  97.4502 189.6127 0001597  91.2916 268.8501 15.19195809 42377
Epoch: 2025-07-01T01:32Z
TLE epoch observation values (Epoch: 2025-07-01T01:32:08.88Z)
Latitude
-0.00006°
Longitude
-112.78911°
Altitude
511.38 km
Speed
7.608 km/s
True Right ascension
12h 38m 27s
True Declination
0° 00' 00"
Sunlit
Object was in daylight at epoch
Visualization orbit readout
Latitude
43.24541°
Longitude
74.58616°
Altitude
513.989 km
Speed
7.611 km/s
Apparent Right ascension
05h 18m 10s
Apparent Declination
8° 14' 39"
Sunlit
Object is in daylight
Visualization observer readout
Local Sidereal Time
21:40:39
Azimuth
67.57° E
Elevation
-12.786°
Doppler factor
1
Orbital elements
Apogee altitude
506.338 km
Perigee altitude
504.139 km
Semi-major axis
6,883.376 km
Eccentricity
0.00016
Inclination
97.4502°
RAAN
189.6127°
Arg. of periapsis
91.2916°
True anomaly
Unknown
Mean anomaly
268.8501°
Eccentric anomaly
Unknown
Mean motion
3.8005 °/min
Orbital period
94.72 mins
BSTAR
0.00016728
Loading maneuver chart data...
Loading SW <> Apogee altitude chart data...
Loading historical data...
Loading historical data...
Loading historical data...
Loading historical data...
Loading historical data...
Loading historical data...
Loading historical data...

OBJECT A Visibility forecast

Observer location: undefined°, undefined°

Span
Click to sort rows by Start time (UTC) header in descending order
Start Az.
Max El. time (UTC)
Max El. Az.
Max El.
End time (UTC)
End Az.
6 mins2025-07-01 13:10:16.708Z23.806° NE2025-07-01 13:13:16.708Z124.792° SE39.615°2025-07-01 13:16:16.708Z179.58° S
4 mins2025-07-02 01:23:16.708Z228.23° WSW2025-07-02 01:25:16.708Z269.987° W19.322°2025-07-02 01:27:16.708Z307.918° NW
|